Back to catalog

STARLINK-32931

AliveCommunicationsVLEO
NORAD 63199·PAYLOAD·🇺🇸 United States

Launched Mar 13, 2025 from Cape Canaveral Space Force Station

Loading…

Next Passes (next 24 hours)

TLE

FreshSource: CelesTrak SupGP

Epoch: Sep 14, 2026, 13:53 UTC

1 63199C 25048S   26257.57895833  .00015793  00000+0  57224-3 0  2571
2 63199  43.0003  98.5522 0001058 238.0054  10.9589 15.27557854    19

Track STARLINK-32931 in real time with AllMySat

Download on the App Store